GEFSNGP_con_probscp_192.txt.gz
Probability
0 0 0 0 0 0 0 0 0 0 1 2 3 5 8 13 20 24 20 14 11 14 19 22 24 26 24 26 31 34 34 31 26 24 24 21 18 14 10 9 10 9 9 8
0 0 0 0 0 0 0 0 0 0 1 2 3 6 10 14 20 22 18 14 14 18 21 23 25 27 26 26 30 32 33 31 27 24 23 20 19 16 13 11 10 10 9 8
0 0 0 1 1 1 0 0 0 0 1 2 3 5 8 11 16 19 18 16 17 22 24 24 25 27 27 27 28 29 30 29 27 23 20 19 20 18 15 11 10 10 8 6
0 0 1 2 3 2 1 1 2 2 3 4 4 5 6 7 10 14 17 17 19 22 22 20 20 23 25 25 25 25 25 25 24 21 18 18 18 17 12 9 9 9 6 4
0 0 1 2 3 3 3 4 5 5 6 7 6 7 6 4 6 11 14 16 18 19 19 17 17 21 24 22 20 20 20 20 20 19 17 15 14 12 9 7 7 7 6 5
0 0 1 2 3 2 3 4 5 5 7 7 6 5 4 3 6 10 12 15 18 18 18 17 19 23 24 21 17 15 14 15 15 15 14 11 9 8 7 7 5 4 5 6
0 0 0 1 2 2 1 2 3 5 6 6 4 3 2 2 6 10 12 15 17 18 17 18 21 23 23 20 16 12 11 12 12 10 8 7 7 7 7 5 3 3 4 5
0 0 0 1 2 1 0 1 4 6 5 5 5 4 2 3 7 11 12 14 14 13 14 17 20 23 22 20 17 14 13 13 10 6 5 6 7 8 7 4 3 3 4 4
0 1 1 1 1 1 0 1 4 5 5 6 6 5 4 6 9 11 13 14 13 11 13 16 19 22 22 21 19 17 16 13 8 4 4 6 7 7 6 5 4 5 4 4
1 2 2 1 0 0 0 1 3 5 6 6 6 6 7 10 11 13 15 17 16 15 16 17 17 18 18 19 19 18 16 12 7 4 4 6 7 6 5 5 4 3 3 3
2 2 2 1 0 0 1 2 4 5 6 6 6 8 11 12 13 14 16 18 19 19 18 17 15 13 13 15 17 18 16 11 6 3 3 5 5 4 3 2 1 1 1 1
1 1 1 0 0 1 3 3 4 5 6 6 8 10 12 13 12 12 13 17 20 20 19 16 13 10 10 11 13 16 16 11 5 2 2 2 2 1 1 0 0 0 0 0
0 0 0 0 1 2 3 3 3 4 5 7 9 12 13 12 11 10 11 15 18 19 17 14 11 8 7 8 10 13 13 9 4 1 1 1 1 0 0 0 0 0 0 0
0 0 0 0 1 2 2 1 2 3 5 7 10 12 13 12 11 11 12 12 14 15 14 11 9 6 5 6 9 10 9 5 2 1 0 1 1 0 0 0 0 0 0 0
0 0 0 0 1 1 1 1 2 4 6 7 9 12 13 12 11 11 11 11 11 11 9 8 7 5 4 6 8 8 5 3 1 0 0 1 1 0 0 0 0 0 0 0
0 0 0 0 0 1 2 3 3 5 7 7 8 10 11 10 8 8 7 7 8 7 5 4 4 4 4 5 6 6 4 2 0 0 0 0 0 0 0 0 0 0 0 0
0 0 0 0 0 1 2 3 4 6 7 7 7 8 8 7 6 5 4 4 5 4 3 2 2 2 2 3 3 3 2 1 0 0 0 0 0 0 0 0 0 0 0 0
0 0 0 1 1 2 3 4 5 7 7 7 7 6 6 5 4 3 2 2 2 2 1 1 1 1 1 1 1 1 1 0 0 0 0 0 0 0 0 0 0 0 0 0
0 0 0 1 3 4 5 5 5 6 6 6 5 4 4 3 3 2 1 1 1 0 0 0 0 0 0 0 0 0 0 0 0 0 0 0 0 0 0 0 0 0 0 0
0 0 0 1 2 4 4 4 4 4 4 4 3 3 3 3 3 3 2 1 0 0 0 0 0 0 0 0 0 0 0 0 0 0 0 0 0 0 0 0 0 0 0 0
0 0 0 0 1 2 3 3 3 3 3 3 3 3 3 3 3 3 3 2 1 0 0 0 0 0 0 0 0 0 0 0 0 0 0 0 0 0 0 0 0 0 0 0
0 0 0 0 0 1 2 2 2 3 3 3 3 3 3 3 3 3 3 2 1 0 0 0 0 0 0 0 0 0 0 0 0 0 0 0 0 0 0 0 0 0 0 0
0 0 0 0 0 0 1 1 1 1 2 2 2 2 2 1 1 2 1 1 0 0 0 0 0 0 0 0 0 0 0 0 0 0 0 0 0 0 0 0 0 0 0 0
0 0 0 0 0 0 0 0 0 0 1 1 1 1 1 0 0 0 0 0 0 0 0 0 0 0 0 0 0 0 0 0 0 0 0 0 0 0 0 0 0 0 0 0
0 0 0 0 0 0 0 0 0 0 0 0 0 0 0 0 0 0 0 0 0 0 0 0 0 0 0 0 0 0 0 0 0 0 0 0 0 0 0 0 0 0 0 0
0 0 0 0 0 0 0 0 0 0 0 0 0 0 0 0 0 0 0 0 0 0 0 0 0 0 0 0 0 0 0 0 0 0 0 0 0 0 0 0 0 0 0 0
0 0 0 0 0 0 0 0 0 0 0 0 0 0 0 0 0 0 0 0 0 0 0 0 0 0 0 0 0 0 0 0 0 0 0 0 0 0 0 0 0 0 0 0

GEFSNGP_con_probscp_198.txt.gz
Probability
0 0 0 0 0 0 0 0 0 0 0 1 3 6 11 13 14 17 23 29 32 33 34 36 37 37 37 40 39 36 35 35 34 31 30 27 22 19 21 22 21 22 20 16
0 0 0 0 0 0 0 0 0 0 1 2 4 7 11 14 16 18 22 25 28 31 32 32 33 33 37 42 43 40 40 39 38 35 32 30 27 26 28 28 27 25 23 20
0 0 0 0 0 0 0 0 0 0 1 4 5 7 10 15 17 19 20 21 22 26 29 30 29 30 35 42 45 43 40 39 39 36 34 33 32 32 34 34 33 29 25 22
0 0 0 0 0 0 0 0 1 2 3 5 7 9 12 15 18 20 21 20 19 21 26 29 29 29 33 39 43 40 34 34 35 34 33 35 35 35 36 37 36 32 27 23
0 0 0 1 0 0 0 1 3 5 7 8 9 11 13 15 18 21 24 23 19 20 25 29 30 29 31 37 39 35 30 30 33 34 33 34 35 35 36 36 35 33 29 25
0 0 0 1 1 0 1 3 7 10 10 10 12 13 15 17 19 23 26 25 20 21 27 32 33 31 31 35 36 33 30 31 34 34 31 31 32 34 34 33 31 29 28 26
0 0 0 1 2 3 5 8 12 14 13 12 14 17 18 18 20 22 24 23 22 23 29 34 36 34 35 38 38 36 35 34 36 34 29 26 28 31 32 29 26 25 25 25
0 1 2 5 8 10 13 16 15 14 13 13 15 18 17 17 18 19 20 20 21 22 26 33 37 38 40 41 40 38 35 33 34 32 26 23 25 27 27 24 21 21 21 21
2 3 6 10 15 18 19 19 16 11 11 13 13 13 13 15 17 18 19 20 21 21 23 31 37 39 40 38 37 33 30 28 29 28 25 22 23 23 21 18 16 17 17 16
7 8 10 13 18 20 19 17 14 10 10 11 10 9 10 13 16 17 19 19 21 22 23 28 35 37 35 33 32 30 27 26 26 25 23 21 21 19 16 14 14 14 13 11
10 11 12 15 19 20 17 13 10 9 10 11 10 9 10 14 15 17 19 21 22 23 24 26 29 32 30 30 31 31 29 28 26 23 20 18 15 12 9 9 10 10 8 7
11 10 11 14 17 17 13 8 7 9 10 10 9 10 12 14 14 17 21 24 24 25 26 26 24 24 25 28 31 32 32 31 27 21 18 15 11 6 3 3 3 4 3 2
7 6 7 10 12 12 9 5 6 9 10 9 9 10 12 13 14 18 23 24 24 26 28 27 23 20 23 26 29 31 31 30 26 21 16 13 8 4 2 1 1 0 0 0
3 3 5 7 8 9 7 6 6 8 10 10 10 11 12 13 15 19 23 24 25 27 29 27 22 20 21 24 25 27 28 27 23 19 15 11 7 5 3 2 1 1 0 0
2 2 4 6 8 7 6 6 6 7 9 11 11 10 11 13 15 19 22 23 24 26 27 24 20 19 20 22 23 25 25 23 19 16 12 9 6 5 3 2 1 1 2 1
2 3 4 5 5 4 4 4 5 5 7 9 9 9 11 13 14 16 19 20 20 21 21 20 18 17 18 19 21 22 20 16 13 11 8 7 6 5 4 3 2 2 2 2
2 3 3 2 2 2 2 3 3 4 6 6 6 8 10 12 12 12 13 14 14 14 14 15 17 17 16 16 16 16 13 10 8 7 5 4 4 4 3 3 2 1 1 1
2 3 2 1 1 2 3 3 3 4 4 4 5 7 9 11 12 11 11 10 10 9 9 11 14 14 14 13 12 10 8 6 5 4 4 3 3 3 2 1 1 0 0 0
1 1 1 0 1 3 3 3 3 3 3 4 5 6 9 12 13 11 10 8 8 7 7 8 9 10 10 10 8 6 5 4 3 3 2 2 2 1 1 0 0 0 0 0
0 0 0 0 1 2 3 3 3 4 4 3 4 6 9 12 11 8 6 5 5 5 4 5 6 6 6 5 4 4 3 2 1 1 1 1 1 0 0 0 0 0 0 0
0 0 0 0 1 1 1 2 3 4 3 3 3 5 8 9 7 5 3 2 2 2 2 3 3 3 2 2 1 2 1 1 0 0 0 0 0 0 0 0 0 0 0 0
0 0 0 0 1 1 1 2 3 4 3 3 3 5 6 7 5 4 2 1 0 0 1 1 1 1 1 0 0 0 0 0 0 0 0 0 0 0 0 0 0 0 0 0
0 0 0 0 1 2 2 2 3 4 3 3 4 5 6 6 4 2 1 0 0 0 0 0 0 0 0 0 0 0 0 0 0 0 0 0 0 0 0 0 0 0 0 0
0 0 0 0 1 1 1 1 2 2 2 2 3 5 5 4 3 1 0 0 0 0 0 0 0 0 0 0 0 0 0 0 0 0 0 0 0 0 0 0 0 0 0 0
0 0 0 0 0 0 0 0 1 1 1 2 3 3 2 1 1 0 0 0 0 0 0 0 0 0 0 0 0 0 0 0 0 0 0 0 0 0 0 0 0 0 0 0
0 0 0 0 0 0 0 0 0 0 1 2 3 2 1 0 0 0 0 0 0 0 0 0 0 0 0 0 0 0 0 0 0 0 0 0 0 0 0 0 0 0 0 0
0 0 0 0 0 0 0 0 0 1 2 2 2 1 0 0 0 0 0 0 0 0 0 0 0 0 0 0 0 0 0 0 0 0 0 0 0 0 0 0 0 0 0 0

GEFSNGP_con_probscp_204.txt.gz
Probability
0 1 1 1 0 0 0 0 0 2 7 12 13 17 22 26 29 30 30 35 43 47 50 55 58 58 59 59 57 56 54 51 51 52 50 45 40 41 45 46 44 40 35 32
0 0 1 1 1 0 0 0 0 2 7 12 14 18 24 29 33 34 33 35 41 45 49 55 56 56 58 58 57 56 54 52 52 54 53 50 47 47 48 47 44 39 34 30
0 0 0 0 1 1 1 2 2 5 10 13 17 23 29 33 36 38 36 36 39 41 47 53 55 52 52 54 56 56 53 52 52 53 54 53 52 51 50 48 44 40 36 33
0 0 0 0 1 2 2 4 7 10 13 15 21 29 34 36 39 42 42 40 39 38 43 49 51 47 45 48 52 54 52 51 51 51 52 52 50 49 49 47 44 40 37 37
0 0 0 1 2 4 5 8 13 16 17 18 24 31 36 40 45 48 47 43 39 36 39 47 49 46 44 46 50 50 50 51 51 50 50 49 47 47 46 43 39 36 35 35
0 0 1 3 4 4 6 12 21 25 25 26 30 36 40 43 49 50 47 42 40 37 40 46 50 49 47 47 48 48 47 49 50 49 47 46 45 44 42 38 33 32 31 30
0 1 4 6 8 10 14 23 30 34 35 38 41 43 44 46 50 50 45 41 40 41 43 45 45 47 48 47 47 47 47 47 47 46 43 42 42 41 38 34 32 31 29 26
2 4 10 16 19 23 31 35 36 36 38 41 42 42 43 46 48 47 43 41 40 42 43 40 38 42 44 44 45 47 47 46 45 43 39 37 37 36 34 31 29 28 25 22
10 12 18 24 28 33 37 37 34 33 33 35 36 36 39 43 44 42 42 41 38 36 36 34 33 36 40 41 44 46 45 43 42 41 38 35 33 31 28 25 24 22 20 18
16 17 19 23 26 29 29 28 28 27 27 29 31 32 36 40 41 40 41 40 36 31 30 31 32 34 36 40 44 45 43 41 40 39 35 31 27 23 19 18 18 17 16 16
16 15 15 16 18 20 22 21 22 24 25 26 28 29 32 36 38 38 38 37 34 31 30 30 32 35 36 38 43 42 39 38 38 35 29 23 17 12 10 9 10 11 12 13
15 14 13 14 14 15 17 19 19 21 23 23 23 23 26 30 32 32 31 30 30 30 30 30 32 33 34 37 39 37 34 34 33 28 22 16 10 6 3 2 2 4 6 7
12 12 12 12 12 12 15 19 19 20 21 20 18 17 19 23 25 25 23 22 25 27 29 30 30 29 29 34 36 33 31 29 27 23 18 14 10 7 4 2 1 1 1 2
8 9 10 10 11 12 15 17 18 19 20 19 17 16 18 20 22 20 18 17 20 24 28 29 27 25 26 31 34 32 28 25 24 22 18 15 13 10 7 6 3 1 1 0
6 8 9 9 9 10 13 14 15 17 18 18 16 16 18 20 21 19 17 16 18 23 26 27 25 24 27 31 32 30 26 23 21 20 17 14 12 9 8 7 5 3 2 1
7 9 10 9 8 9 11 12 13 14 14 13 12 13 15 18 19 18 17 17 20 24 25 25 23 24 27 29 29 27 23 20 19 17 15 13 11 9 7 6 5 4 3 2
7 9 8 7 8 9 11 11 11 11 10 8 8 9 13 15 17 16 15 16 19 22 22 21 21 23 25 26 26 23 19 17 15 14 14 13 12 11 9 7 5 3 2 1
5 5 4 4 6 8 8 7 7 7 7 6 6 7 10 13 15 15 13 14 16 17 17 17 17 19 22 22 22 20 17 14 13 12 12 11 11 10 9 6 4 2 1 0
3 3 2 2 2 4 3 3 4 6 6 6 5 5 7 11 13 14 14 14 14 14 14 13 13 16 18 16 16 18 16 13 11 10 9 8 7 7 5 3 1 1 0 0
5 4 2 0 0 1 1 2 4 6 6 6 5 5 6 9 12 13 15 15 13 12 11 9 9 12 13 11 11 14 15 13 10 9 8 7 6 5 3 1 0 0 0 0
6 5 2 0 1 1 2 3 5 6 6 6 6 6 7 9 11 13 14 13 11 8 6 5 6 9 10 9 9 11 12 11 9 8 7 6 5 4 2 0 0 0 0 0
4 3 1 0 2 4 5 6 6 6 6 6 6 6 7 10 11 12 12 10 7 5 4 4 3 5 6 6 7 9 9 8 7 6 5 4 3 2 0 0 0 0 0 0
5 3 2 1 2 4 7 6 5 4 5 6 5 5 7 10 11 10 9 7 4 2 2 2 1 1 3 5 7 7 7 6 5 4 3 2 1 0 0 0 0 0 0 0
8 7 5 3 3 4 6 5 4 3 3 3 4 5 6 7 8 6 4 2 1 1 1 1 0 0 2 5 6 6 5 5 3 2 1 1 0 0 0 0 0 0 0 0
8 7 5 4 4 4 4 3 2 2 1 1 2 3 3 3 4 3 2 0 0 0 0 0 0 0 2 4 4 4 3 2 1 1 0 0 0 0 0 0 0 0 0 0
5 4 2 3 4 5 3 1 1 1 0 0 1 2 2 2 2 2 2 0 0 0 0 0 0 0 1 1 1 1 1 0 0 0 0 0 0 0 0 0 0 0 0 0
3 2 1 2 4 4 3 1 0 0 0 0 1 2 3 3 1 1 1 0 0 0 0 0 0 0 0 0 0 0 0 0 0 0 0 0 0 0 0 0 0 0 0 0

GEFSNGP_con_probscp_210.txt.gz
Probability
0 0 0 0 1 2 2 1 1 2 6 11 15 21 27 30 30 28 29 33 36 35 34 36 40 43 43 39 36 38 42 40 34 27 24 22 20 18 15 12 12 13 13 13
0 0 0 0 1 2 2 1 1 3 6 12 18 24 27 30 31 29 29 33 35 34 35 38 41 43 41 36 33 36 39 40 35 29 25 24 22 19 16 15 16 16 14 12
0 0 0 0 1 3 3 3 3 5 9 16 24 27 28 29 29 28 27 29 30 31 32 35 38 39 36 31 29 31 34 35 34 32 30 29 26 22 20 20 21 19 15 12
0 0 0 1 2 2 3 5 8 11 15 22 28 30 29 27 27 25 22 23 25 25 25 27 29 31 32 29 27 27 27 28 30 31 32 31 28 25 24 25 24 19 14 11
0 0 1 2 2 3 4 8 12 16 20 24 28 29 28 28 27 26 23 21 20 21 21 22 23 25 30 32 30 28 26 26 26 28 30 30 29 28 27 26 22 16 12 10
0 0 1 3 5 5 6 10 14 17 19 22 25 26 25 25 27 28 27 23 20 20 21 21 21 24 29 33 34 32 30 27 25 27 29 29 28 28 26 22 17 13 10 8
0 0 0 3 6 7 8 12 15 17 19 21 22 23 22 24 29 31 30 27 23 22 20 19 20 22 25 29 31 30 29 26 26 28 29 28 27 25 22 18 15 12 10 7
0 0 0 2 5 6 9 14 18 20 21 23 25 25 26 28 32 33 31 28 25 21 17 16 17 18 19 22 23 22 21 22 24 26 27 26 25 23 20 17 15 14 10 8
1 1 0 1 3 5 9 15 19 21 22 24 27 27 28 29 30 31 30 27 23 19 15 13 13 15 16 17 17 16 16 16 18 21 23 23 22 21 20 17 16 15 13 10
2 2 1 2 4 7 11 15 18 19 19 20 22 23 23 24 25 27 27 25 20 17 15 12 11 13 15 15 15 14 13 13 14 17 18 19 18 17 17 16 15 14 12 11
4 3 3 4 5 8 13 16 17 17 15 14 16 17 17 19 22 24 25 23 20 18 16 13 12 13 14 16 15 13 11 12 13 14 14 14 12 10 10 10 10 9 8 8
4 4 4 3 4 8 11 15 17 17 14 11 12 13 13 15 18 20 20 18 18 19 18 16 14 13 14 16 15 13 11 11 12 12 11 9 7 4 3 3 3 3 3 4
3 4 4 4 5 7 9 11 13 14 12 9 9 10 10 11 14 14 14 13 14 16 17 16 13 12 14 15 14 12 10 10 10 10 8 7 5 3 1 0 0 0 1 1
3 4 5 5 6 6 7 8 8 9 7 6 6 8 8 8 9 8 8 9 10 12 13 13 12 11 12 13 12 10 8 8 8 7 7 6 5 4 2 0 0 0 0 0
3 4 5 6 6 6 6 6 6 5 4 4 5 6 6 5 4 3 5 8 8 8 9 9 9 9 10 10 9 7 6 5 5 5 6 5 4 3 1 0 0 0 0 0
3 4 5 6 6 6 6 6 6 5 5 5 4 4 4 2 1 2 5 8 7 6 5 5 5 5 7 8 7 5 4 3 3 4 5 5 4 3 1 0 0 0 0 0
3 3 4 5 5 5 4 4 5 5 5 5 4 3 2 2 2 3 5 6 6 5 4 3 2 3 5 7 7 6 4 4 3 4 5 4 3 2 1 0 0 0 0 0
1 2 3 4 5 5 4 4 4 4 4 4 3 2 2 2 2 3 4 5 5 4 3 2 1 3 5 7 7 6 5 5 4 4 5 4 2 1 1 0 0 0 0 0
1 2 3 5 6 6 5 4 3 3 3 3 3 1 1 1 1 2 3 5 5 4 2 1 1 3 5 6 5 6 6 6 5 5 5 3 1 0 0 0 0 0 0 0
2 2 4 5 5 5 4 3 3 2 2 2 2 1 0 0 0 1 2 4 4 3 1 1 1 2 3 4 4 5 6 6 6 6 6 4 2 1 1 1 0 0 0 0
1 1 3 3 4 4 3 2 1 1 0 1 1 0 0 0 0 0 1 2 2 1 0 0 1 1 1 2 3 4 5 6 6 6 6 5 3 2 2 1 0 0 0 0
0 0 1 1 2 2 2 1 0 0 0 0 0 0 0 0 0 0 0 1 1 0 0 0 0 0 0 1 2 3 4 5 5 5 5 4 3 3 2 1 0 0 0 0
0 0 0 0 1 1 1 0 0 0 0 0 0 0 0 0 0 0 0 0 0 0 0 0 0 0 0 1 1 2 3 3 2 3 3 3 2 1 1 0 0 0 0 0
0 0 0 0 0 0 0 0 0 0 0 0 0 0 0 0 0 0 0 0 0 0 0 0 0 0 0 1 1 1 1 1 0 1 1 1 1 0 0 0 0 0 0 0
0 0 0 0 0 0 0 0 0 0 0 0 0 0 0 0 0 0 0 0 0 0 0 0 0 0 0 0 0 0 0 0 0 0 0 0 0 0 0 0 0 0 0 0
0 0 0 0 0 0 0 0 0 0 0 0 0 0 0 0 0 0 0 0 0 0 0 0 0 0 0 0 0 0 0 0 0 0 0 0 0 0 0 0 0 0 0 0
0 0 0 0 0 0 0 0 0 0 0 0 0 0 0 0 0 0 0 0 0 0 0 0 0 0 0 0 0 0 0 0 0 0 0 0 0 0 0 0 0 0 0 0

GEFSNGP_con_probscp_216.txt.gz
Probability
0 0 1 1 1 1 0 0 0 0 0 0 1 4 7 11 16 22 23 23 24 24 22 17 13 13 17 20 22 24 23 22 23 22 20 20 17 11 5 3 3 4 5 5
0 0 2 3 3 2 1 0 0 0 0 0 2 6 11 14 17 21 23 23 25 25 21 16 14 14 18 21 22 22 22 22 22 21 21 20 17 11 7 5 5 6 6 6
0 0 1 3 3 2 2 1 0 0 1 1 4 10 15 17 18 20 21 22 24 24 19 15 14 15 20 25 24 22 21 21 21 20 21 20 16 12 10 9 8 8 6 5
0 0 1 1 1 1 1 1 0 1 2 3 6 12 16 17 17 19 19 20 19 18 15 13 13 15 21 25 24 22 21 21 21 20 19 17 16 14 13 13 12 10 8 6
0 0 1 0 0 0 0 0 0 1 2 4 8 12 14 14 15 17 18 17 15 12 12 11 12 14 18 22 23 22 21 22 21 19 16 15 16 15 15 15 15 14 12 11
0 0 0 0 0 0 0 0 0 0 2 4 7 10 11 13 15 18 18 14 10 9 9 10 11 13 16 20 21 21 21 22 19 15 14 14 15 15 14 13 15 17 15 13
0 0 0 0 0 0 0 0 0 1 3 7 7 8 11 14 18 21 19 12 8 8 8 8 10 11 14 16 18 18 18 18 15 12 11 12 13 13 13 12 13 16 15 12
0 0 0 0 0 0 0 0 0 1 4 8 9 9 11 15 19 22 20 14 9 8 7 7 9 10 10 11 13 13 11 11 12 11 10 10 12 13 13 12 12 14 13 11
0 0 0 0 0 0 0 1 0 0 3 7 9 10 11 13 16 20 20 15 11 9 7 7 8 9 8 7 8 9 8 8 10 12 12 12 12 13 14 13 12 12 12 12
0 0 1 1 1 0 0 1 1 1 3 5 7 8 10 12 14 17 19 17 12 9 8 8 9 9 7 5 6 7 7 7 10 13 14 12 12 12 13 13 11 10 10 12
1 2 3 3 1 0 1 2 2 3 5 6 6 6 9 11 13 15 17 15 12 9 9 9 10 10 7 6 6 6 7 8 9 10 11 11 10 9 9 9 8 6 8 9
2 3 3 3 2 0 1 3 3 4 6 6 5 6 8 10 11 12 12 11 9 8 9 10 10 10 8 6 6 6 7 8 7 7 7 9 9 7 5 4 3 3 4 5
2 3 3 3 2 1 1 3 3 3 4 5 5 6 9 9 8 8 9 9 8 7 8 9 10 9 8 6 4 5 5 5 5 5 5 6 7 6 4 2 1 1 1 1
1 2 3 3 3 1 0 1 2 2 2 3 4 6 9 9 8 8 9 8 7 7 7 8 8 8 7 5 3 2 2 2 2 2 2 2 4 5 5 4 3 2 1 0
0 1 1 3 3 2 1 0 0 0 1 2 3 5 8 9 9 9 8 7 6 6 6 6 6 7 7 5 2 0 0 0 0 0 0 0 1 3 4 3 3 2 1 0
1 1 1 3 3 3 2 1 0 0 0 1 3 4 6 7 8 7 5 4 5 5 5 5 4 3 4 3 1 0 0 0 0 0 1 1 1 2 3 2 2 2 1 0
2 2 3 3 3 3 2 1 0 0 1 1 3 3 4 5 5 4 3 2 2 3 3 2 1 1 1 1 0 0 0 0 0 0 1 2 2 2 2 1 1 1 0 0
1 2 3 3 3 2 1 0 0 1 2 3 3 3 3 4 3 1 1 1 0 1 1 1 1 2 1 0 0 0 1 1 1 0 1 2 2 2 2 1 0 0 0 0
0 1 1 2 1 1 0 1 1 2 3 3 3 3 3 2 1 0 0 0 0 0 1 1 2 3 2 0 0 0 1 2 2 1 1 2 3 2 1 0 0 0 0 0
0 0 0 0 0 1 1 2 3 3 3 3 3 3 2 1 0 0 0 0 0 0 1 2 3 5 4 1 0 0 0 1 2 2 2 3 3 2 1 0 0 0 0 0
0 0 0 0 0 1 2 3 3 3 3 3 3 2 1 0 0 0 0 0 0 0 0 1 3 4 3 1 0 0 0 0 1 2 3 3 3 1 0 0 0 0 0 0
0 0 0 0 0 2 3 3 3 3 3 2 1 1 0 0 0 0 0 0 0 0 0 0 1 1 1 0 0 0 0 1 2 3 3 3 2 1 0 0 0 0 0 0
0 0 0 0 1 2 3 3 3 2 2 1 0 0 0 0 0 0 0 0 0 0 0 0 0 0 0 0 0 0 1 1 3 3 3 2 2 1 0 0 0 0 0 0
0 0 0 0 1 2 3 3 2 1 1 0 0 0 0 0 0 0 0 0 0 0 0 0 0 0 0 0 0 1 2 2 2 2 1 1 1 0 0 0 0 0 0 0
0 0 0 0 1 2 2 2 1 0 0 0 0 0 0 0 0 0 0 0 0 0 0 0 0 0 0 0 0 1 2 1 1 1 0 0 0 0 0 0 0 0 0 0
0 0 0 0 0 1 1 1 1 0 0 0 0 0 0 0 0 0 0 0 0 0 0 0 0 0 0 0 0 1 1 0 0 0 0 0 0 0 0 0 0 0 0 0
0 0 0 0 0 0 0 0 0 0 0 0 0 0 0 0 0 0 0 0 0 0 0 0 0 0 0 0 0 0 0 0 0 0 0 0 0 0 0 0 0 0 0 0

GEFSNGP_con_probscp_222.txt.gz
Probability
0 0 0 0 0 1 2 3 3 4 5 8 13 17 20 26 34 37 34 31 31 32 32 31 31 31 34 36 36 34 30 25 20 19 21 24 25 24 24 22 20 17 15 13
0 0 0 0 0 0 1 2 3 4 6 9 12 15 20 25 32 36 34 30 30 32 31 29 30 31 32 34 35 33 31 26 21 19 21 23 24 23 21 19 19 19 16 14
0 0 0 0 0 0 0 1 3 5 7 9 10 14 20 25 32 37 35 31 30 32 32 31 31 31 32 33 33 32 30 27 24 22 22 22 21 18 16 15 17 19 18 16
0 0 0 0 0 0 0 1 3 6 8 9 10 14 20 27 36 40 38 35 33 33 34 35 34 33 33 32 30 29 27 26 25 25 23 21 17 14 13 14 18 21 22 21
0 0 0 0 0 0 0 0 3 7 10 10 10 12 17 26 36 40 40 39 37 35 36 36 35 33 32 30 27 24 23 23 25 24 23 20 16 13 14 16 19 22 25 25
0 0 0 0 0 0 0 0 2 6 10 12 12 12 17 26 34 38 39 37 36 34 34 32 31 30 28 25 24 22 21 22 24 23 20 18 16 15 17 18 19 23 25 26
0 0 0 0 0 1 3 3 3 6 11 14 15 17 23 29 34 37 35 32 31 32 31 27 24 23 22 21 21 22 22 24 24 20 16 15 16 17 18 19 20 22 24 24
0 0 0 1 2 5 8 8 7 9 14 16 17 18 23 29 33 34 31 28 27 30 30 25 21 19 19 20 21 23 25 26 23 18 15 15 16 16 17 18 19 20 21 21
1 1 2 4 7 10 11 12 12 14 16 15 14 15 20 26 30 30 28 26 26 29 30 26 22 21 21 22 23 24 27 28 24 19 16 17 17 16 15 16 17 18 18 16
3 5 8 10 12 13 13 14 16 15 13 12 13 16 22 27 28 27 26 25 27 28 28 26 23 22 23 22 22 24 27 28 25 20 18 19 19 17 16 15 16 16 16 14
7 11 14 15 14 14 14 14 14 12 8 9 16 20 24 26 27 25 23 24 26 26 25 25 24 23 22 21 20 22 25 25 23 20 19 20 19 15 13 12 12 12 12 11
11 15 18 18 16 14 14 12 11 9 8 11 17 21 22 24 24 23 21 21 22 24 23 23 23 21 19 18 19 21 21 20 19 19 19 19 17 13 10 8 6 4 5 6
14 16 19 19 16 13 12 11 11 11 12 14 16 18 20 21 21 21 19 18 19 21 21 21 19 17 16 17 18 19 18 16 15 15 16 16 15 13 11 7 4 1 1 1
12 15 17 17 14 12 12 12 13 14 15 14 13 14 16 16 16 16 16 16 16 17 17 17 15 14 15 16 17 18 17 13 11 11 13 13 13 12 11 9 5 3 1 0
8 10 12 12 11 10 11 12 14 14 14 11 9 10 13 12 10 10 11 13 14 13 12 12 12 13 14 15 16 17 15 10 8 9 10 10 10 8 8 7 6 4 2 1
6 6 7 7 8 8 9 10 11 12 11 9 7 8 11 10 8 6 8 10 12 11 10 10 10 12 13 14 16 16 13 7 5 6 7 8 7 7 6 5 5 4 3 2
3 3 3 4 6 7 7 8 8 9 8 7 5 6 8 10 8 6 6 8 10 11 11 11 11 10 12 14 15 13 9 5 3 4 5 5 6 7 6 5 4 3 3 2
1 1 1 3 5 6 7 7 7 6 5 4 3 3 5 7 7 6 6 7 9 10 10 11 10 8 9 12 12 9 8 6 4 3 3 3 5 7 7 5 4 3 3 2
0 0 1 3 4 5 6 7 7 4 2 1 1 2 3 3 4 6 7 8 8 8 7 7 6 6 7 8 8 8 7 6 4 4 3 2 4 6 7 5 3 3 3 3
0 0 1 2 2 3 5 7 7 4 2 1 1 2 2 1 2 6 8 9 7 5 4 3 3 4 5 5 5 5 5 4 4 4 3 2 3 6 6 4 3 3 3 3
0 0 0 1 1 1 3 5 6 4 3 1 0 0 0 0 2 4 6 6 4 2 1 1 1 2 3 3 3 3 2 2 2 3 3 2 3 5 5 4 3 4 3 3
0 0 0 0 0 1 2 3 4 3 2 0 0 0 0 1 2 3 4 3 2 1 0 0 0 1 1 1 2 2 1 1 1 1 2 3 3 4 4 4 5 5 4 4
1 1 0 0 0 0 1 1 2 2 1 0 0 1 1 2 3 3 3 2 1 0 0 0 0 0 0 1 1 1 1 0 0 1 3 3 3 4 5 5 6 5 4 4
2 2 1 0 1 1 0 0 0 0 0 0 1 2 3 3 3 3 3 2 1 0 0 0 0 0 0 1 2 1 1 1 1 3 3 2 2 4 6 6 5 4 3 3
3 2 2 1 2 1 0 0 0 0 0 1 2 2 2 2 1 1 2 2 0 0 0 0 0 0 0 1 2 3 2 2 3 5 4 2 2 3 4 4 4 3 3 3
3 2 2 2 2 1 0 0 0 0 0 1 2 1 1 1 0 1 2 1 0 0 0 0 0 0 0 1 2 3 3 3 4 5 4 3 2 2 2 2 1 2 2 2
3 2 2 2 1 0 0 0 0 0 0 1 1 0 0 0 1 2 2 1 0 0 0 0 0 0 0 1 2 3 3 4 5 4 4 3 3 2 1 0 0 1 1 1

GEFSNGP_con_probscp_228.txt.gz
Probability
0 0 0 0 0 0 0 0 1 4 9 17 22 27 31 35 38 43 49 54 63 69 69 67 66 64 61 58 56 54 52 50 50 48 43 40 39 37 34 32 27 26 27 26
0 0 0 0 0 0 0 0 1 5 12 19 25 30 35 39 41 43 47 53 61 67 68 67 65 64 61 57 55 52 50 48 47 46 43 39 37 35 34 32 29 27 26 26
0 0 0 0 0 0 0 0 3 8 13 21 28 34 38 43 44 44 46 53 61 65 66 64 63 60 56 52 50 49 46 45 46 46 45 39 33 33 33 31 28 25 26 27
0 0 0 0 0 0 1 3 6 10 14 21 31 36 39 42 45 47 51 56 60 61 59 59 57 53 46 43 44 43 43 43 45 46 45 39 33 31 31 30 28 27 28 30
1 0 0 0 0 0 2 7 11 13 15 22 31 36 38 43 48 52 56 58 56 54 54 55 54 49 41 37 38 39 40 42 43 42 41 38 34 31 30 30 31 30 29 29
2 1 0 0 0 0 4 11 16 17 19 23 30 37 43 49 52 54 57 57 54 52 52 55 55 51 45 39 37 37 39 41 41 39 37 34 33 32 31 30 30 28 26 24
4 3 2 2 3 7 14 22 23 23 27 30 34 41 49 53 53 54 54 53 52 51 52 54 56 55 50 44 40 39 39 39 38 37 33 29 29 31 30 28 25 23 21 19
8 9 11 14 15 22 32 35 31 31 37 40 39 40 46 51 51 49 46 44 46 49 49 50 52 51 48 44 40 37 36 33 31 30 30 27 27 28 27 23 20 18 17 17
19 22 28 30 31 35 39 36 32 34 39 40 37 36 41 49 49 45 41 39 41 44 44 44 44 43 40 37 34 31 30 28 25 25 26 28 28 27 24 21 18 16 15 16
34 35 36 36 35 34 33 30 27 29 31 31 31 34 40 47 50 48 44 42 42 42 41 39 37 35 33 30 28 27 25 23 22 23 25 27 26 23 20 18 16 15 14 15
40 39 36 34 31 29 27 27 25 23 22 23 27 34 41 48 51 50 46 44 45 45 42 37 32 30 30 29 27 25 22 20 20 21 23 22 20 15 13 12 11 10 10 11
37 35 34 32 29 26 24 23 23 20 18 18 24 32 39 46 50 48 44 43 45 47 43 36 31 29 29 29 27 24 22 20 20 20 21 21 17 12 9 7 5 4 4 5
30 28 27 28 26 23 21 19 17 16 16 18 23 28 33 39 42 42 40 39 41 42 40 35 30 28 27 26 25 24 23 22 20 20 20 20 18 14 10 7 4 2 1 1
23 23 24 25 24 22 20 16 11 11 14 19 24 27 29 31 32 34 35 34 35 36 35 32 28 26 25 24 23 23 24 21 19 19 19 19 18 16 12 10 7 4 2 1
18 21 24 25 23 20 17 13 9 10 15 20 24 27 27 26 26 29 31 31 31 30 30 29 27 25 24 23 22 22 22 21 20 19 17 17 16 14 13 11 8 7 5 4
14 16 19 20 19 15 12 11 11 13 17 21 23 23 23 23 23 24 26 29 30 29 28 28 26 25 24 24 24 23 21 19 19 18 15 14 13 12 11 9 8 7 8 7
9 10 12 12 12 10 10 11 13 16 18 19 20 19 19 20 22 22 23 26 28 29 28 27 24 23 24 24 24 22 19 17 18 18 16 14 12 10 9 8 7 7 8 8
6 6 7 8 10 11 12 13 14 16 16 16 16 17 17 19 22 23 24 24 25 25 26 23 19 18 20 22 21 19 17 16 18 19 17 14 10 9 8 7 7 7 7 7
5 6 7 8 10 12 14 14 14 14 13 13 14 15 16 18 21 22 23 22 20 20 23 21 14 11 14 16 16 16 15 16 18 18 16 13 10 8 7 6 5 6 7 8
5 6 7 8 9 10 13 13 13 14 13 12 13 13 14 16 18 19 20 18 16 18 21 18 11 8 10 12 13 13 14 15 16 16 14 11 9 8 8 6 5 5 8 10
5 5 5 5 5 8 11 12 12 13 13 11 11 11 11 12 13 15 15 12 13 16 16 12 8 7 7 8 9 11 12 13 15 15 12 10 9 9 9 7 5 6 8 8
6 5 3 2 3 6 9 9 9 10 10 10 9 8 9 9 9 10 11 10 9 10 9 7 5 4 4 4 6 7 9 11 13 13 12 10 8 9 9 7 7 9 10 9
7 4 1 2 4 5 6 6 6 6 7 7 7 6 6 6 5 6 7 6 4 3 5 5 3 1 1 1 2 4 5 8 9 10 12 11 9 9 9 7 8 10 11 9
4 3 1 2 4 5 4 4 4 5 6 6 5 4 4 3 3 4 5 3 1 1 3 4 2 0 0 0 1 1 3 4 5 7 9 9 8 8 8 6 6 8 8 7
4 3 2 3 4 5 4 4 4 4 6 5 4 3 3 3 3 4 4 2 0 1 2 1 0 0 0 0 0 1 2 3 3 3 4 5 6 7 6 4 3 4 3 2
4 5 5 4 4 5 4 3 3 3 4 4 4 4 4 4 4 5 4 2 0 0 1 1 0 0 0 0 0 1 2 2 1 1 1 3 5 6 5 3 2 2 1 1
4 6 7 5 4 4 4 2 2 1 2 3 4 4 6 6 5 5 4 2 1 1 2 2 1 1 1 1 1 1 2 1 1 0 0 2 4 4 4 3 2 2 2 2

GEFSNGP_con_probscp_234.txt.gz
Probability
0 0 0 0 0 0 0 0 0 1 5 10 16 26 35 38 38 39 42 42 38 34 31 31 32 32 35 39 38 35 35 36 34 29 25 23 20 17 15 15 12 10 10 10
0 0 0 0 0 0 0 0 0 2 4 10 19 29 37 40 39 39 41 41 37 33 31 31 30 29 30 34 36 34 33 34 34 32 30 27 23 18 16 15 14 12 11 12
0 0 0 0 0 0 0 0 0 1 5 14 25 33 39 41 39 38 38 38 35 31 29 29 28 26 24 26 31 33 31 31 32 33 33 32 28 22 18 17 16 13 12 13
0 0 0 0 0 0 1 1 1 2 8 20 30 35 39 41 39 37 36 34 31 29 28 28 27 24 23 24 28 30 30 29 28 29 31 32 30 26 22 18 16 15 14 13
0 0 0 0 0 2 4 4 4 7 14 24 31 36 39 40 39 36 33 30 28 28 29 29 27 25 25 25 25 26 27 27 27 28 29 30 28 26 24 20 17 16 14 12
0 0 0 1 2 5 8 8 8 12 20 25 30 33 35 39 39 35 30 28 27 28 30 30 28 26 25 24 23 23 23 25 27 29 29 28 26 25 24 21 17 14 13 11
0 0 0 2 5 8 9 10 11 16 22 25 27 29 33 39 41 38 33 29 28 29 28 28 26 25 23 21 20 21 22 23 26 28 27 25 24 24 23 20 16 14 12 11
0 0 0 2 5 7 9 13 15 17 22 26 29 31 34 38 40 39 35 32 30 28 25 23 22 21 19 17 17 20 23 24 24 24 22 21 21 22 22 20 17 14 12 10
5 5 5 6 6 7 10 16 19 20 23 28 32 34 36 36 35 34 33 31 29 26 23 21 19 18 16 13 14 18 22 23 21 19 17 17 18 20 21 20 18 15 11 8
15 15 16 15 13 12 13 16 20 22 25 28 30 34 37 36 32 30 29 28 26 23 21 19 17 15 13 12 13 17 20 19 17 15 14 14 15 15 15 15 14 12 9 7
17 17 19 20 19 17 15 16 18 22 25 25 27 31 34 35 32 29 27 25 22 20 18 15 12 11 11 11 12 15 17 17 16 13 11 9 9 8 8 7 7 6 6 5
10 11 13 16 17 16 15 16 16 19 24 26 25 27 28 29 29 27 25 23 20 18 15 11 8 8 9 9 10 13 16 16 16 13 9 7 5 3 3 2 2 1 2 2
6 7 9 11 13 14 15 15 13 14 19 24 25 25 24 24 23 23 23 22 20 17 14 11 9 9 9 9 9 10 12 14 15 14 11 8 5 3 2 1 0 0 1 1
7 8 9 10 11 11 12 12 10 10 14 19 22 24 23 21 19 19 19 19 18 16 13 11 10 10 10 9 8 7 7 9 12 14 12 10 8 6 4 2 1 1 1 2
8 9 10 10 9 8 8 7 7 9 12 16 19 21 21 20 18 17 15 15 15 14 12 11 10 9 10 8 7 6 6 7 10 11 10 9 8 6 4 3 2 2 2 4
8 9 9 8 7 6 4 4 6 8 11 15 19 19 19 18 17 16 13 12 12 12 11 10 8 8 8 7 7 6 7 8 9 9 9 8 7 5 4 4 3 3 4 5
6 6 6 5 5 5 4 4 6 8 10 14 17 18 17 17 16 13 11 9 10 10 9 8 6 6 6 7 7 7 7 8 9 9 9 8 6 4 4 5 4 4 4 5
3 2 2 1 2 4 4 5 6 8 10 12 15 16 15 14 12 9 7 7 7 7 6 5 4 4 4 5 6 7 7 8 9 9 10 9 7 5 5 5 6 5 4 2
1 1 0 0 1 2 4 5 7 8 9 10 13 14 12 10 7 5 4 5 5 5 4 2 1 2 3 3 4 5 6 8 9 10 9 8 7 6 5 5 5 6 4 2
1 1 0 0 0 1 3 5 6 7 7 8 10 10 8 5 4 3 3 4 4 3 1 0 0 1 2 3 3 4 6 7 8 9 9 7 7 6 6 4 4 6 5 3
2 2 1 0 0 1 2 4 4 4 5 6 6 6 5 4 3 3 3 3 3 1 1 1 0 0 1 2 3 3 4 6 7 7 6 5 6 6 5 4 4 5 5 4
3 3 2 0 0 0 1 1 1 2 3 4 4 3 3 3 3 3 3 3 1 1 2 2 1 0 0 1 2 1 2 3 3 3 2 2 4 5 4 3 3 4 4 4
1 2 1 0 0 0 0 0 0 0 1 2 3 3 3 3 3 3 3 2 1 1 2 2 1 0 0 0 0 0 0 1 1 1 0 0 1 2 2 3 3 3 2 2
0 0 0 0 0 0 0 0 0 0 0 2 3 3 3 3 2 2 2 1 0 0 1 1 0 0 0 0 0 0 0 0 0 0 0 0 0 0 1 1 2 1 1 0
0 0 0 0 0 0 0 0 0 0 0 2 3 3 2 1 1 1 1 0 0 0 0 0 0 0 0 0 0 0 0 0 0 0 0 0 0 0 1 1 1 0 0 0
0 0 0 0 0 0 0 0 0 0 0 1 2 3 2 0 0 0 0 0 0 0 0 0 0 0 0 0 0 0 0 0 0 0 0 0 0 0 1 1 0 0 0 0
0 0 0 0 0 0 0 0 0 0 0 0 1 2 2 1 0 0 0 0 0 0 0 0 0 0 0 0 0 0 0 0 0 0 0 0 0 0 0 1 0 0 0 0

GEFSNGP_con_probscp_240.txt.gz
Probability
0 0 0 0 0 0 0 0 0 0 0 1 3 5 7 9 11 12 11 11 12 15 14 13 14 15 14 12 16 19 20 19 18 16 14 13 13 14 13 10 8 7 5 3
0 0 0 0 0 0 0 0 0 0 0 2 5 7 8 11 15 16 15 13 13 14 16 17 18 19 17 15 16 19 20 20 20 20 19 17 16 17 15 12 10 11 9 7
0 0 0 0 0 0 0 0 0 0 0 2 7 9 11 14 19 22 21 17 15 15 16 18 21 22 20 17 17 18 19 20 21 21 20 19 19 19 18 15 15 16 15 12
0 0 0 0 0 0 0 0 0 0 0 3 9 14 16 18 22 23 21 18 16 16 15 17 20 20 18 16 16 16 17 20 20 19 18 17 19 20 19 17 17 18 17 14
0 0 0 0 0 0 0 0 0 0 1 5 13 17 18 20 21 19 16 15 15 16 16 16 17 16 14 14 14 14 15 18 20 20 18 18 19 20 18 17 17 17 15 12
0 0 0 0 0 0 0 0 0 0 3 9 14 14 14 17 19 18 15 13 14 15 16 15 13 12 11 11 11 12 14 17 21 21 20 21 21 20 18 17 17 15 12 10
0 0 0 0 0 0 0 0 0 1 5 11 12 10 12 15 18 18 17 15 16 16 16 13 10 8 8 8 8 11 14 18 22 22 21 21 21 20 19 17 15 13 11 10
0 0 0 0 0 0 0 0 0 2 6 10 11 12 14 16 18 17 16 18 19 18 16 13 9 6 5 5 7 11 16 20 21 20 19 19 20 20 19 16 14 13 12 12
0 0 0 0 0 0 0 0 0 3 7 11 14 16 17 18 18 17 18 20 21 19 17 13 10 8 6 5 6 11 16 19 18 15 15 17 19 20 19 17 16 16 15 14
1 0 0 0 0 0 1 1 3 6 9 13 16 17 18 19 19 19 19 22 22 20 18 15 11 9 7 6 7 10 14 16 15 13 12 14 17 18 18 17 15 15 15 15
2 1 0 0 0 1 3 5 7 10 14 17 20 19 18 19 19 19 20 21 21 20 19 16 12 8 7 8 9 10 11 12 13 11 10 11 12 12 12 11 9 9 10 10
2 1 0 0 0 2 6 9 10 13 18 21 22 19 17 17 17 19 20 20 20 20 18 15 12 9 8 10 11 11 11 10 9 8 8 8 8 6 5 4 4 3 4 4
1 1 1 1 1 3 7 10 10 13 17 19 18 16 14 15 16 18 20 19 19 18 15 12 10 9 8 9 10 10 10 8 6 5 6 6 6 5 3 3 3 2 1 1
1 2 4 4 3 4 8 10 10 11 12 14 14 13 12 13 14 16 16 16 15 14 11 8 7 6 5 6 7 8 7 5 3 3 5 5 6 5 4 3 3 3 2 1
1 3 4 5 4 4 7 9 9 7 7 9 10 11 11 11 12 12 12 12 11 10 8 6 4 4 4 5 6 6 5 4 3 3 3 4 5 4 4 3 3 3 3 3
1 2 3 3 4 4 5 5 5 4 4 5 7 9 10 11 11 11 11 10 9 8 7 6 4 3 4 6 6 6 6 5 4 4 4 5 5 5 5 4 3 3 3 3
0 1 1 2 3 3 3 3 2 2 2 2 4 8 10 10 11 12 11 9 7 6 6 5 4 3 3 5 6 6 5 4 4 5 5 6 6 6 6 5 4 3 3 3
0 0 0 1 2 2 1 1 1 1 1 2 4 7 8 8 9 11 10 8 7 6 6 4 2 1 1 3 4 5 4 3 3 4 4 5 6 6 6 5 4 3 3 3
0 0 0 0 1 1 0 0 0 0 1 4 6 6 6 6 6 7 8 8 8 7 5 3 1 0 0 1 1 2 2 3 3 3 3 4 5 6 6 6 5 4 3 3
0 0 0 0 0 0 0 0 0 0 2 5 6 6 6 5 3 3 4 6 8 7 5 3 1 0 0 0 0 0 1 2 2 2 2 3 3 4 4 5 5 5 4 3
0 0 0 0 0 0 0 0 0 0 2 5 6 5 4 3 1 1 3 4 5 5 3 1 0 0 0 0 0 0 0 1 1 1 1 1 1 2 3 4 5 5 4 3
0 0 0 0 0 0 0 0 0 0 1 3 3 3 2 1 1 2 3 3 3 3 2 1 0 0 0 0 0 0 0 0 0 0 0 0 0 2 3 4 5 4 3 3
0 0 0 0 0 0 0 0 0 0 0 1 1 2 2 1 2 3 3 3 2 2 2 1 0 0 0 0 0 0 0 0 0 0 0 0 0 1 3 3 3 2 1 2
0 0 0 0 0 0 0 0 0 0 0 0 0 1 2 3 3 3 3 3 1 1 1 1 0 0 0 0 0 0 0 0 0 0 0 0 0 0 1 1 1 1 0 1
0 0 0 0 0 0 0 0 0 0 0 0 0 1 2 3 3 3 3 2 1 0 0 0 0 0 0 0 0 0 0 0 0 0 0 0 0 0 0 0 0 0 0 0
0 0 0 0 0 0 0 0 0 0 0 0 0 0 1 3 3 3 2 1 0 0 0 0 0 0 0 0 0 0 0 0 0 0 0 0 0 0 0 0 0 0 0 0
0 0 0 0 0 0 0 0 0 0 0 0 0 0 1 2 3 3 1 0 0 0 0 0 0 0 0 0 0 0 0 0 0 0 0 0 0 0 0 0 0 0 0 0

GEFSNGP_con_probscp_246.txt.gz
Probability
0 0 0 0 0 0 0 0 0 0 0 1 2 6 12 16 18 20 24 28 31 33 35 35 33 30 28 26 25 25 26 25 24 24 23 23 24 22 20 16 13 13 15 16
0 0 0 0 0 0 0 0 0 0 0 1 4 9 14 18 20 22 25 28 31 33 36 38 37 34 31 28 26 26 25 24 23 23 23 23 23 24 23 20 17 16 16 16
0 0 0 0 0 0 0 0 0 0 0 2 6 12 17 21 23 27 29 31 31 33 36 39 41 39 34 30 28 26 24 20 19 20 20 20 20 22 24 24 23 22 21 19
0 0 0 0 0 0 0 0 0 0 1 3 7 11 16 23 28 31 33 33 32 32 34 37 41 41 36 31 30 28 24 19 18 19 19 18 18 20 24 26 27 28 26 25
0 0 0 0 0 0 0 0 0 0 2 4 6 8 15 26 32 34 36 34 32 31 32 35 40 43 38 32 31 30 26 22 21 23 23 22 22 24 26 26 28 29 28 28
0 0 0 0 0 0 0 0 1 3 6 8 7 9 18 29 35 37 39 38 35 33 34 39 45 46 42 35 33 32 30 26 25 26 27 28 29 29 28 27 27 27 26 26
0 0 0 0 0 0 2 3 5 6 9 11 12 15 24 33 39 42 43 43 40 37 39 44 48 49 46 41 37 34 33 31 28 29 30 31 32 31 29 28 27 27 26 26
1 1 2 3 4 5 8 11 10 8 10 12 14 18 27 36 42 44 44 44 43 40 40 43 44 45 45 43 40 37 36 34 31 31 32 32 31 30 29 29 28 27 26 26
3 4 7 9 11 14 17 19 16 11 11 13 15 19 29 38 43 46 46 46 45 41 37 35 35 36 38 38 38 36 35 34 32 31 31 32 31 29 29 28 26 24 24 24
8 10 13 15 17 21 24 25 21 16 13 14 16 21 30 38 43 46 47 46 45 41 34 30 30 32 34 35 35 33 31 30 29 29 30 32 31 29 27 25 24 23 22 22
12 14 17 19 22 25 29 30 27 22 16 15 18 22 28 36 43 46 45 43 42 39 36 32 31 32 34 34 33 29 27 26 25 26 28 29 28 25 21 20 20 19 18 18
12 14 17 20 25 28 30 32 31 26 21 18 20 23 29 36 42 43 41 38 38 38 37 35 32 31 32 31 28 26 24 22 23 24 25 25 21 17 13 11 10 10 10 11
13 14 17 20 25 27 28 29 29 28 27 25 25 28 32 37 39 38 36 35 35 36 37 35 32 31 30 26 23 23 22 20 21 23 22 21 18 14 9 5 4 3 3 3
16 16 18 21 23 25 25 26 27 28 30 29 29 31 32 34 34 32 31 31 31 33 34 33 31 31 29 24 21 20 20 20 21 21 20 19 19 15 10 6 5 4 3 2
16 15 17 19 21 22 23 25 26 27 29 29 30 30 28 29 29 28 28 29 29 29 30 29 28 29 28 23 17 15 15 17 19 19 17 17 17 14 10 7 6 6 6 5
14 13 15 17 18 19 20 22 23 23 24 27 27 26 24 24 25 25 25 26 27 26 25 25 25 25 24 20 14 11 11 12 13 13 13 13 13 11 8 7 6 6 6 6
12 12 13 15 16 16 17 18 18 17 18 20 21 20 18 18 19 20 21 21 22 21 20 20 22 23 22 20 14 11 10 9 7 7 8 8 9 7 6 6 6 7 7 7
9 9 9 10 11 13 14 14 13 13 12 12 12 12 12 13 13 14 15 15 14 13 13 15 17 20 21 19 14 10 9 7 5 5 5 5 5 4 4 5 6 7 8 8
7 6 5 6 7 9 12 13 12 10 9 8 7 7 8 8 9 10 12 11 10 10 10 11 13 16 18 16 11 8 7 6 5 6 5 3 2 3 3 4 6 8 8 8
6 5 5 5 5 6 9 11 11 9 7 6 6 5 5 5 6 8 11 11 11 11 11 11 12 14 15 13 9 8 8 7 7 7 5 2 1 1 2 3 5 7 7 7
6 5 5 5 5 5 5 7 9 8 6 5 5 4 3 3 3 6 10 11 12 12 12 11 12 14 13 11 8 9 10 9 8 7 4 1 0 0 1 1 3 5 5 6
5 5 5 5 4 4 3 4 5 5 5 5 5 4 3 3 3 5 8 10 11 11 11 11 12 11 10 9 8 8 9 9 8 5 2 1 0 0 0 0 1 2 3 4
6 6 5 4 4 3 3 3 3 3 4 4 5 4 3 3 4 6 7 8 7 6 7 10 8 5 5 8 8 7 7 7 6 4 2 1 0 0 0 0 0 0 1 2
8 8 6 4 3 3 3 2 1 1 2 3 3 3 3 4 5 6 6 6 4 2 3 4 3 1 3 6 8 7 6 4 3 3 2 1 0 0 0 0 0 0 0 1
7 6 6 5 4 4 2 1 0 0 1 2 2 1 2 3 4 4 4 3 1 0 1 1 0 0 2 4 5 5 4 2 1 1 1 0 0 0 0 0 0 0 0 0
5 4 4 4 4 3 1 0 0 0 0 1 1 1 1 1 2 1 2 2 1 1 1 2 1 1 1 2 2 2 2 1 0 0 0 0 0 0 0 0 0 0 0 0
4 4 3 4 4 2 1 0 0 0 0 0 1 2 2 1 1 1 2 2 2 2 2 3 2 1 1 0 0 0 1 0 0 0 0 0 0 0 0 0 0 0 0 0

GEFSNGP_con_probscp_252.txt.gz
Probability
0 0 0 0 0 0 0 0 0 1 4 9 14 17 23 29 32 32 32 40 53 64 69 68 64 62 57 52 51 51 50 50 49 43 37 33 29 27 29 29 28 26 24 22
0 0 0 0 0 0 0 0 0 2 6 10 15 19 24 28 32 34 36 43 54 64 69 68 64 61 56 51 51 52 50 49 49 45 40 36 31 29 30 30 28 27 26 26
0 0 0 0 0 0 0 0 1 4 8 12 16 23 27 30 34 38 41 46 55 63 67 66 61 59 55 50 49 51 51 49 46 43 40 37 33 31 31 31 30 29 29 30
0 0 0 0 0 0 0 0 2 6 11 14 17 23 27 31 37 43 46 50 57 61 62 61 60 57 54 52 50 50 50 48 43 40 39 38 36 34 33 33 32 32 32 33
0 0 0 0 0 0 0 1 4 9 13 16 17 20 26 32 38 44 49 54 58 58 57 59 59 57 56 55 53 50 49 47 43 41 40 40 40 39 37 36 35 35 35 35
0 0 0 0 0 0 1 2 5 11 17 19 19 22 28 36 40 44 49 56 58 57 56 59 59 58 59 59 57 53 50 48 46 43 42 41 41 41 40 39 38 37 36 36
1 0 0 0 1 4 9 12 12 13 19 25 27 29 32 38 42 44 47 53 58 59 59 60 59 59 62 62 59 56 51 48 46 44 41 39 40 43 42 40 39 38 38 37
4 4 5 6 8 13 21 25 22 19 21 27 31 32 32 36 42 45 47 52 57 60 61 59 57 59 62 61 59 56 51 47 45 43 40 39 40 42 42 40 39 39 38 38
9 10 11 13 16 21 25 26 24 23 22 26 30 30 32 38 45 48 50 54 57 58 57 54 53 56 59 60 58 55 51 48 46 43 41 40 40 39 38 38 38 37 37 37
13 13 13 15 18 20 19 18 18 20 22 24 28 31 35 43 50 52 54 56 57 56 54 51 50 53 58 60 58 55 51 48 44 42 42 41 40 37 35 34 34 34 34 35
16 16 15 15 17 17 16 15 15 19 22 23 27 33 38 45 51 54 54 55 57 56 54 52 52 53 56 58 57 54 50 45 40 38 39 39 36 32 29 28 27 28 29 31
18 20 19 17 15 15 16 15 16 20 22 23 27 32 36 42 49 52 53 55 55 54 53 53 53 52 53 54 53 51 47 42 37 35 36 34 30 26 23 20 18 17 18 20
19 19 19 16 14 13 14 15 18 21 23 25 28 30 33 38 44 49 52 52 51 50 50 51 50 49 49 50 49 48 45 41 37 35 34 31 28 26 23 17 13 9 8 8
15 16 15 14 13 14 15 17 19 23 25 26 28 30 33 36 40 44 48 49 47 46 48 49 47 46 48 49 49 47 43 40 39 37 34 29 27 26 24 20 17 12 7 5
10 11 13 14 14 16 18 19 21 25 28 29 30 33 35 37 38 41 43 44 44 46 48 49 48 49 49 50 50 46 41 38 38 36 32 28 26 25 24 22 21 18 13 9
8 10 13 16 17 19 22 23 24 28 30 30 32 34 35 36 37 38 39 40 42 46 49 50 50 49 47 47 46 44 39 35 33 32 29 27 25 24 23 21 20 20 17 14
8 10 13 17 18 20 23 25 27 31 31 29 31 34 35 36 37 38 38 39 41 43 45 47 46 44 41 41 42 40 37 31 27 26 27 26 25 24 22 19 18 19 18 15
8 10 13 14 15 17 21 24 26 29 30 27 28 32 34 36 38 38 38 38 39 38 38 37 36 35 36 37 38 36 33 29 25 24 25 25 23 22 20 16 14 14 13 11
10 10 11 12 13 14 18 21 23 24 25 24 26 29 32 34 37 37 35 33 31 31 31 29 26 28 31 31 30 29 27 25 23 23 23 22 20 18 17 14 10 8 8 8
11 12 12 13 14 14 16 18 19 18 19 21 24 25 25 27 31 31 29 26 24 24 24 22 21 23 25 24 20 19 20 19 20 21 21 20 19 19 17 13 10 8 7 6
12 12 13 14 15 14 13 14 16 15 15 17 19 19 18 17 20 23 23 20 18 18 15 14 15 16 18 17 15 15 17 18 19 20 20 19 19 20 18 15 12 9 7 6
11 11 12 14 14 13 12 13 14 14 13 12 14 15 13 12 13 16 18 16 11 8 7 7 8 9 11 13 14 15 16 17 18 19 19 18 18 18 17 15 14 10 7 6
12 11 11 12 12 11 10 11 12 12 11 10 10 12 13 14 13 13 13 11 6 2 2 3 3 4 7 11 13 15 16 16 17 18 18 16 14 14 13 13 12 10 7 5
12 11 10 10 10 9 9 9 10 9 8 6 6 8 11 13 13 12 10 8 4 2 1 1 0 1 5 9 11 12 13 15 16 16 15 13 10 10 10 9 9 7 6 5
11 10 9 9 9 9 8 8 7 6 4 2 2 3 5 7 10 11 10 7 3 2 2 2 1 1 3 6 8 8 9 12 13 12 11 9 8 8 8 7 5 4 3 4
9 8 8 9 9 8 7 6 4 2 1 0 0 0 2 4 6 9 9 7 4 3 3 3 3 2 3 3 4 5 5 7 8 8 8 7 7 8 7 5 3 2 1 1
9 8 7 8 8 7 5 4 2 0 0 0 0 1 2 3 4 6 7 6 5 4 3 4 4 4 3 2 1 2 3 4 6 6 6 7 8 7 6 4 2 1 1 0

GEFSNGP_con_probscp_258.txt.gz
Probability
0 0 0 0 0 0 0 0 0 0 1 5 10 15 21 23 22 22 25 30 33 34 35 34 31 29 29 30 30 30 30 28 26 24 23 21 18 16 14 13 13 14 15 15
0 0 0 0 0 0 0 0 0 1 3 7 11 16 21 24 23 22 24 29 32 34 37 37 34 32 33 33 32 32 31 29 28 25 23 21 19 17 14 13 14 16 16 16
0 0 0 0 0 0 1 0 1 3 5 9 13 17 21 24 24 23 24 26 30 33 36 37 34 34 35 34 32 30 29 28 26 25 24 22 20 18 16 15 16 17 17 17
0 0 0 0 0 0 1 1 3 5 7 11 15 19 21 24 25 25 24 25 27 29 31 30 30 31 32 31 29 26 24 23 22 22 23 22 20 19 18 18 18 17 17 18
0 0 0 0 0 1 2 4 5 6 8 13 18 21 20 22 26 26 25 25 26 28 29 28 27 27 27 27 27 26 23 21 18 18 19 20 20 19 20 21 20 18 17 17
0 0 0 1 1 2 4 6 7 8 10 14 18 19 17 19 23 25 26 25 25 28 31 30 29 27 26 26 26 25 24 23 21 18 16 16 18 20 22 24 24 22 19 18
0 0 0 1 1 3 5 6 8 9 12 13 13 12 13 16 20 24 27 26 26 30 32 31 29 30 28 27 27 26 25 25 24 21 18 17 18 21 24 26 27 25 22 21
0 0 0 1 2 2 4 6 7 9 11 11 9 9 11 15 19 23 28 29 29 31 33 29 28 30 29 27 26 26 26 26 25 24 22 21 23 25 25 25 26 26 25 24
1 1 2 2 3 3 5 6 7 8 10 11 10 10 14 18 20 23 28 32 32 34 34 29 27 27 27 26 25 24 24 24 24 24 22 22 25 27 26 25 24 24 24 24
4 4 4 4 5 6 8 8 8 8 11 13 14 15 18 21 23 25 29 33 35 36 34 29 26 25 25 25 24 23 21 21 22 22 20 21 23 25 26 25 23 23 23 23
6 5 5 6 7 9 11 10 8 9 12 14 16 18 21 23 24 25 28 33 36 35 32 28 25 24 24 24 24 23 21 21 21 20 19 18 18 19 21 21 20 21 22 23
5 4 5 7 10 13 12 9 8 9 11 13 17 20 23 24 24 25 28 31 33 32 29 26 25 24 23 22 24 24 24 22 22 20 17 14 13 12 12 12 11 13 16 17
5 5 6 8 12 13 11 9 8 9 9 12 17 21 24 26 26 25 26 28 30 29 27 25 24 23 22 22 22 23 24 23 22 20 15 11 10 10 9 7 5 5 6 8
6 7 7 9 12 12 11 9 9 9 8 10 15 19 24 27 27 24 23 23 26 27 25 23 22 21 22 22 22 21 22 24 24 20 15 12 10 10 10 8 6 4 2 2
7 8 9 10 12 12 11 9 9 8 7 8 12 16 21 24 24 22 20 18 20 22 22 21 20 20 21 22 21 19 20 23 24 20 17 15 12 10 11 10 9 7 3 1
6 7 9 12 13 12 11 9 7 7 7 8 10 13 16 19 20 19 17 15 15 17 17 16 17 19 20 20 18 15 15 18 19 17 17 16 14 12 12 12 11 8 5 3
6 7 9 11 12 11 9 7 6 6 6 7 9 10 11 14 16 15 13 12 14 17 16 14 13 15 17 17 15 12 12 14 15 15 16 16 15 14 13 13 11 9 6 4
6 6 6 8 9 9 8 6 5 5 6 8 8 8 8 10 11 11 10 11 14 17 16 13 11 12 12 12 11 11 12 13 14 15 16 16 15 13 11 12 11 9 6 4
4 5 5 5 7 8 7 6 5 6 7 7 6 6 5 5 7 8 8 9 11 13 13 12 11 10 9 8 8 10 12 13 13 14 16 16 14 11 9 10 10 9 7 5
4 5 6 6 7 8 8 7 6 5 5 5 4 3 3 3 5 5 5 6 8 9 8 8 9 8 7 7 7 8 10 12 12 12 14 14 12 9 9 9 9 9 8 7
4 5 7 7 7 7 8 7 6 5 4 3 2 2 3 3 4 4 3 4 5 5 5 4 5 5 6 6 6 7 8 9 10 10 11 11 9 7 7 8 8 8 8 7
3 4 6 7 7 7 7 7 6 6 5 3 2 2 3 3 3 3 3 3 2 2 2 2 2 3 4 5 6 6 7 7 8 8 8 7 5 4 4 5 5 5 5 5
3 3 4 6 7 7 8 8 6 6 6 5 3 3 3 3 3 3 2 1 1 0 1 1 0 1 1 2 4 6 6 6 6 6 5 4 3 1 2 3 3 3 3 3
3 3 3 4 5 7 7 6 5 5 6 5 4 3 3 3 2 1 1 0 0 0 0 0 0 0 0 0 2 3 5 6 6 5 3 2 2 1 1 3 3 3 3 3
3 2 1 3 5 5 4 4 3 4 4 4 2 2 2 1 1 0 0 0 0 0 0 0 0 0 0 0 0 1 3 4 4 2 1 1 1 1 2 3 3 3 3 3
3 2 1 3 4 4 3 3 3 3 3 2 1 1 0 0 0 0 0 0 0 0 0 0 0 0 0 0 0 0 1 1 1 0 0 0 0 0 2 3 3 3 3 3
3 2 2 3 3 3 3 3 3 3 1 1 1 1 0 0 0 0 0 0 0 0 0 0 0 0 0 0 0 0 0 0 0 0 0 0 0 1 2 3 3 3 3 3

GEFSNGP_con_probscp_264.txt.gz
Probability
0 0 0 0 0 0 0 0 0 0 0 1 3 6 9 10 8 6 6 7 9 11 13 14 13 13 15 17 17 17 16 15 15 16 16 13 11 11 10 10 10 10 10 10
0 0 0 0 0 0 0 0 0 0 0 1 3 6 8 10 10 9 8 9 9 10 11 12 11 12 14 16 17 17 15 12 13 15 15 13 13 13 12 11 10 11 11 11
0 0 0 0 0 0 0 0 0 0 1 2 4 7 9 11 12 11 10 10 9 9 10 10 10 11 13 15 16 17 13 9 10 12 13 13 14 15 14 12 11 11 11 11
0 0 0 0 0 0 0 0 0 0 2 4 6 7 8 10 11 10 9 8 7 7 8 10 12 12 13 14 16 16 13 10 10 11 12 13 15 16 15 14 12 11 11 11
0 0 0 0 0 0 0 0 1 2 4 6 6 6 7 8 8 8 7 7 7 7 9 11 13 14 13 14 16 16 14 13 13 15 15 14 14 15 15 15 14 13 12 12
0 0 0 0 0 0 0 0 2 4 5 6 6 6 5 5 5 5 6 8 9 10 10 11 13 13 12 12 13 14 14 15 17 18 18 17 15 14 15 16 16 15 14 14
0 0 0 0 0 0 0 0 2 4 4 4 4 5 4 3 3 5 7 8 9 9 10 11 12 11 10 10 11 12 13 15 18 19 19 19 16 14 14 15 16 16 16 16
0 0 0 0 0 0 0 1 2 3 3 2 3 4 5 4 5 7 9 9 8 7 9 10 12 12 11 11 12 13 13 15 17 18 19 19 17 13 12 13 14 16 17 17
0 0 0 0 0 0 0 1 3 3 2 2 3 5 7 7 7 9 11 11 9 7 8 10 12 14 15 15 15 16 15 14 15 16 17 18 16 13 12 11 12 14 16 16
1 0 1 1 1 0 0 2 3 3 2 2 4 7 9 10 11 12 14 13 11 9 8 10 12 15 16 16 16 17 16 14 12 12 14 14 14 13 13 12 11 12 14 16
1 1 2 3 2 0 0 2 3 4 3 3 4 7 11 12 14 15 17 17 14 11 11 11 13 14 15 16 16 16 15 13 12 12 12 12 12 13 13 11 9 9 12 13
1 1 2 2 1 0 0 2 3 5 5 5 6 8 10 12 14 16 18 18 16 16 15 14 14 15 16 17 18 18 15 13 12 12 12 12 12 11 10 9 6 6 7 8
1 1 2 2 1 0 0 1 4 7 8 8 8 9 10 11 13 15 16 14 15 17 17 16 15 15 17 19 21 21 18 15 13 13 13 13 12 10 9 8 6 5 4 4
2 3 3 2 1 0 0 2 6 10 12 11 10 10 10 11 12 12 11 10 10 13 15 15 14 15 17 19 20 21 20 17 13 11 12 13 11 9 9 9 8 6 4 4
3 3 3 2 1 1 1 4 8 11 12 12 11 10 10 10 10 9 7 6 8 10 12 13 14 14 14 15 17 18 17 15 11 9 9 11 10 8 8 8 9 7 5 4
4 4 3 3 2 2 3 4 7 9 10 10 9 9 9 8 7 6 5 4 6 8 9 10 11 11 10 11 13 14 13 10 8 6 7 9 9 7 6 6 7 6 5 4
5 4 4 3 3 3 3 4 5 6 7 8 7 7 6 6 5 4 3 2 3 5 5 6 7 7 7 8 10 12 10 7 6 5 6 6 7 7 6 5 4 5 4 4
4 4 3 3 3 3 3 3 4 4 5 6 6 6 4 3 3 2 2 1 2 3 4 4 4 5 6 6 8 10 9 7 6 6 5 5 6 6 6 4 3 4 5 6
3 3 3 3 3 3 4 4 4 4 4 5 6 5 3 2 1 1 2 1 2 3 4 4 3 4 5 6 7 9 8 7 6 6 6 6 6 7 5 4 3 4 5 6
2 3 3 3 3 3 3 3 3 3 3 4 4 4 3 2 0 1 1 1 1 2 4 4 3 3 4 5 6 8 8 7 6 6 7 7 7 7 5 2 2 2 2 3
1 2 3 2 1 1 2 2 2 3 3 3 3 3 2 1 0 0 0 0 1 3 4 4 3 3 3 3 5 7 7 6 6 6 7 7 7 6 4 1 1 1 0 1
1 2 3 2 0 1 2 2 3 3 3 3 2 1 1 0 0 0 0 1 2 3 4 3 3 2 1 2 5 7 7 6 6 6 6 6 6 6 3 1 0 1 1 1
2 3 3 2 1 1 2 3 3 3 3 2 1 0 0 0 1 1 1 2 3 3 2 2 1 1 0 1 4 5 6 6 6 6 6 6 6 6 3 1 1 1 2 2
1 2 3 3 2 1 1 2 2 2 1 1 0 0 1 1 2 2 2 2 2 1 1 1 0 0 0 0 2 3 3 4 4 4 4 5 6 5 4 2 1 2 3 3
0 1 2 3 2 1 0 1 1 1 0 0 0 0 1 2 2 2 1 1 1 0 0 0 0 0 0 0 0 1 1 2 3 3 3 3 3 3 3 3 2 2 3 3
0 0 1 2 2 1 0 0 0 0 0 0 0 0 1 1 1 1 0 0 0 0 0 0 0 0 0 0 0 0 0 1 2 1 1 1 1 1 2 3 2 2 2 1
0 0 0 1 1 0 0 0 0 0 0 0 0 0 0 0 0 0 0 0 0 0 0 0 0 0 0 0 0 0 0 0 1 0 0 0 0 0 1 2 1 1 1 0